User: anonymous   Login
Location: Stillwell
(40.4602°N, 82.0928°W)
Time: 10:02:51
(UTC-04:00)
Language:

Cosmos 2333 Rocket - Orbit

View from above orbital plane
View from above orbital plane
View from above satellite
View from above satellite

Ground track
Ground track

The orbit data is extracted from the following two-line orbital elements,

1 24298U 96051B   17085.86197950 +.00000013 +00000-0 +33165-4 0  9998
2 24298 070.8474 235.5843 0017713 295.1975 064.7309 14.12486988060190
Epoch (UTC): 26 March 2017 20:41:15
Eccentricity: 0.0017713
inclination: 70.8474°
perigee height: 838 km
apogee height: 863 km
right ascension of ascending node: 235.5843°
argument of perigee: 295.1975°
revolutions per day: 14.12486988
mean anomaly at epoch: 64.7309°
orbit number at epoch: 6019

The dashed part of the orbit path shows where the satellite is in the earth's shadow,  

DLR